CDT,Max TemperatureF,Mean TemperatureF,Min TemperatureF,Max Dew PointF,MeanDew PointF,Min DewpointF,Max Humidity, Mean Humidity, Min Humidity, Max Sea Level PressureIn, Mean Sea Level PressureIn, Min Sea Level PressureIn, Max VisibilityMiles, Mean VisibilityMiles, Min VisibilityMiles, Max Wind SpeedMPH, Mean Wind SpeedMPH, Max Gust SpeedMPH,PrecipitationIn, CloudCover, Events, WindDirDegrees
2013-10-1,85,77,69,70,67,64,90,75,59,30.06,30.02,29.95,10,10,7,14,8,23,0.00,6,,171
2013-10-2,85,79,72,68,65,59,84,65,46,30.10,30.05,30.01,10,10,10,16,7,23,0.00,6,,175
2013-10-3,87,78,68,70,67,64,84,68,51,30.06,30.01,29.95,10,10,10,14,8,22,0.00,3,,172
2013-10-4,85,78,71,71,70,68,93,77,61,30.06,30.01,29.97,10,9,6,14,8,22,0.00,5,,165
2013-10-5,88,78,67,72,70,67,87,69,50,30.02,29.95,29.88,10,10,10,23,8,30,0.04,6,Rain,192
2013-10-6,73,65,56,66,52,44,93,66,38,29.99,29.93,29.88,10,10,7,17,6,23,0.43,6,Rain,316
2013-10-7,70,60,50,49,47,43,83,64,44,30.11,30.04,29.96,10,10,10,16,7,20,0.00,1,,4
2013-10-8,74,63,52,51,48,45,83,61,38,30.15,30.10,30.06,10,10,10,16,8,21,0.00,0,,47
2013-10-9,78,68,57,63,58,49,87,74,60,30.14,30.10,30.05,10,10,10,15,6,17,0.00,3,,125
2013-10-10,80,71,61,64,60,54,93,68,42,30.16,30.09,30.01,10,9,2,9,2,12,0.00,3,,189
2013-10-11,82,71,60,62,59,58,90,68,45,30.06,30.01,29.96,10,10,10,12,6,15,0.00,1,,170
2013-10-12,75,69,62,66,63,59,93,81,68,30.13,30.05,29.98,10,9,1,20,4,26,0.44,5,Rain,183
2013-10-13,81,72,62,64,61,51,93,74,54,30.27,30.21,30.14,10,9,6,14,9,17,0.00,5,,34
2013-10-14,83,71,59,61,56,49,72,58,43,30.22,30.14,30.05,10,10,10,12,5,26,0.00,5,,86
2013-10-15,74,71,68,66,63,61,93,81,68,30.03,29.99,29.95,10,9,4,17,8,21,0.45,8,Rain,160
2013-10-16,69,63,57,66,58,53,93,86,78,30.03,29.98,29.94,10,8,5,17,6,21,0.62,8,Rain,346
2013-10-17,68,59,50,55,52,46,93,73,52,30.04,29.99,29.96,10,10,4,14,5,16,0.01,6,Rain,329
2013-10-18,71,60,48,53,48,45,93,69,44,30.08,30.01,29.95,10,10,10,9,3,15,T,4,Rain,185
2013-10-19,61,52,43,54,47,39,93,72,51,30.08,30.03,29.93,10,10,4,21,6,26,0.03,5,Rain,310
2013-10-20,67,55,42,45,41,37,89,65,40,30.12,30.05,30.00,10,10,10,12,4,20,0.00,0,,191
2013-10-21,73,60,46,52,46,42,86,63,40,30.08,30.03,29.98,10,10,10,21,5,26,0.06,3,Rain,238
2013-10-22,68,60,52,54,46,37,93,64,34,30.07,30.00,29.91,10,10,9,15,7,20,T,4,Rain,313
2013-10-23,60,53,45,46,39,35,80,60,40,30.16,30.09,29.96,10,10,10,18,6,22,0.00,1,,334
2013-10-24,65,55,45,43,39,32,71,55,39,30.38,30.21,30.11,10,10,10,18,7,23,0.00,3,,27
2013-10-25,55,46,37,34,28,24,76,54,32,30.53,30.43,30.33,10,10,10,15,6,21,0.00,0,,56
2013-10-26,67,53,38,49,39,30,79,59,39,30.30,30.21,30.10,10,10,10,16,8,45,0.00,4,,205
2013-10-27,67,61,54,57,53,49,93,78,63,30.10,30.07,30.02,10,10,5,13,4,16,0.01,8,Rain,214
2013-10-28,71,62,53,56,54,52,93,73,53,30.22,30.16,30.07,10,6,0,9,2,12,0.00,7,,183
2013-10-29,75,66,57,65,59,54,93,81,68,30.24,30.19,30.12,10,8,1,18,8,23,0.00,6,,150
2013-10-30,75,70,64,64,62,60,87,76,64,30.19,30.09,29.95,10,10,10,18,10,23,0.00,8,,182
2013-10-31,72,66,59,66,64,49,93,75,56,29.94,29.74,29.57,10,7,2,37,17,45,1.21,7,Rain,193